TimeEDT,TemperatureF,Dew PointF,Humidity,Sea Level PressureIn,VisibilityMPH,Wind Direction,Wind SpeedMPH,Gust SpeedMPH,PrecipitationIn,Events,Conditions,WindDirDegrees,DateUTC
12:54 AM,55.9,45.0,67,29.99,10.0,Calm,Calm,-,N/A,,Clear,0,2013-05-17 04:54:00
1:54 AM,61.0,44.1,54,29.99,10.0,Calm,Calm,-,N/A,,Clear,0,2013-05-17 05:54:00
2:54 AM,55.0,45.0,69,29.97,10.0,Calm,Calm,-,N/A,,Clear,0,2013-05-17 06:54:00
3:54 AM,60.1,45.0,57,29.98,10.0,East,4.6,-,N/A,,Clear,100,2013-05-17 07:54:00
4:54 AM,60.1,45.0,57,29.99,10.0,East,6.9,-,N/A,,Clear,90,2013-05-17 08:54:00
5:54 AM,60.1,44.1,55,30.01,10.0,ESE,10.4,-,N/A,,Clear,110,2013-05-17 09:54:00
6:54 AM,57.9,41.0,53,30.03,10.0,ESE,17.3,21.9,N/A,,Clear,110,2013-05-17 10:54:00
7:54 AM,59.0,39.2,48,30.06,10.0,ESE,13.8,-,N/A,,Clear,110,2013-05-17 11:54:00
8:54 AM,62.1,41.0,46,30.06,10.0,East,11.5,-,N/A,,Clear,100,2013-05-17 12:54:00
9:54 AM,66.0,43.0,43,30.07,10.0,ESE,12.7,-,N/A,,Scattered Clouds,110,2013-05-17 13:54:00
10:54 AM,68.0,45.0,43,30.06,10.0,ESE,10.4,-,N/A,,Mostly Cloudy,120,2013-05-17 14:54:00
11:54 AM,71.1,46.9,42,30.06,10.0,East,5.8,-,N/A,,Scattered Clouds,80,2013-05-17 15:54:00
12:54 PM,73.0,48.0,41,30.06,10.0,ESE,6.9,-,N/A,,Mostly Cloudy,110,2013-05-17 16:54:00
1:54 PM,73.9,50.0,43,30.05,10.0,Calm,Calm,-,N/A,,Mostly Cloudy,0,2013-05-17 17:54:00
2:54 PM,75.2,51.8,44,30.04,10.0,East,6.9,-,N/A,,Overcast,80,2013-05-17 18:54:00
3:54 PM,75.9,52.0,43,30.02,10.0,ENE,5.8,-,N/A,,Overcast,70,2013-05-17 19:54:00
4:54 PM,80.1,50.0,35,29.99,10.0,ENE,5.8,-,N/A,,Scattered Clouds,70,2013-05-17 20:54:00
5:54 PM,81.0,50.0,34,29.99,10.0,ENE,6.9,-,N/A,,Mostly Cloudy,60,2013-05-17 21:54:00
6:54 PM,81.0,44.1,27,30.00,10.0,SE,11.5,-,N/A,,Overcast,130,2013-05-17 22:54:00
7:54 PM,78.1,46.0,32,30.01,10.0,ESE,6.9,-,N/A,,Overcast,110,2013-05-17 23:54:00
8:54 PM,72.0,57.9,61,30.05,10.0,SW,5.8,-,0.00,,Overcast,220,2013-05-18 00:54:00
9:54 PM,71.1,59.0,66,30.05,10.0,SE,16.1,-,0.00,,Overcast,140,2013-05-18 01:54:00
10:54 PM,69.1,60.1,73,30.06,10.0,SE,8.1,-,N/A,,Overcast,130,2013-05-18 02:54:00
11:54 PM,68.0,46.0,45,30.06,10.0,East,12.7,-,N/A,,Partly Cloudy,100,2013-05-18 03:54:00